Weather History for Paynesville, MN

Change the Weather History Date:

Sunday, January 12, 2014

  Actual Average (KLJF) Record (KLJF)
Temperature  
Mean Temperature 30 °F -  
Max Temperature 39 °F 19 °F 50 °F (1987)
Min Temperature 21 °F 1 °F -31 °F (1977)
Degree Days  
Heating Degree Days 35    
Moisture  
Dew Point 27 °F    
Average Humidity 81    
Maximum Humidity 93    
Minimum Humidity 71    
Precipitation  
Precipitation 0.00 in - - ()
Sea Level Pressure  
Sea Level Pressure 29.41 in    
Wind  
Wind Speed 8 mph (SSW)    
Max Wind Speed 13 mph    
Max Gust Speed 17 mph    
Visibility 10 miles    
Events      
Averages and records for this station are not official NWS values.
T = Trace of Precipitation, MM = Missing Value Source: NWS Daily Summary

Daily Weather History Graph

Daily Weather History Graph

Search for Another Location

Airport:

Trip Planner

Search our weather history database for the weather conditions in past years. The results will help you decide how hot, cold, wet, or windy it might be!

Date:

Astronomy

Jan. 12, 2014 Rise Set
Actual Time 7:56 AM CST 4:58 PM CST
Civil Twilight 7:23 AM CST 5:31 PM CST
Nautical Twilight 6:46 AM CST 6:08 PM CST
Astronomical Twilight 6:10 AM CST 6:44 PM CST
Moon 2:28 PM CST (1/12) 4:54 AM CST (1/12)
Length of Visible Light 10h 08m
Length of Day
9h 02m
Waxing Gibbous, 90% of the Moon is Illuminated
Jan 12
Waxing Gibbous
Jan 15
Full
Jan 23
Last Quarter
Jan 30
New
Feb 6
First Quarter

Hourly Weather History & Observations

Time (CST) Temp. Windchill Dew Point Humidity Pressure Visibility Wind Dir Wind Speed Gust Speed Precip Events Conditions
12:12 AM 21.2 °F 13.6 °F 19.4 °F 93% 29.55 in 7.0 mi SSE 5.8 mph - N/A   Mostly Cloudy
12:32 AM 21.9 °F 11.7 °F 20.1 °F 93% 29.52 in 7.0 mi SSE 9.2 mph - N/A   Mostly Cloudy
12:52 AM 21.6 °F 10.6 °F 19.8 °F 93% 29.51 in 7.0 mi SE 10.4 mph - N/A   Mostly Cloudy
1:12 AM 22.1 °F 11.3 °F 20.3 °F 93% 29.50 in 7.0 mi SSE 10.4 mph - N/A   Overcast
1:32 AM 22.8 °F 12.2 °F 20.8 °F 92% 29.49 in 10.0 mi SSE 10.4 mph - N/A   Overcast
1:53 AM 23.5 °F 13.0 °F 21.2 °F 91% 29.48 in 10.0 mi SSE 10.4 mph - N/A   Overcast
2:12 AM 23.9 °F 12.3 °F 21.2 °F 89% 29.46 in 10.0 mi SSE 12.7 mph - N/A   Overcast
2:33 AM 24.6 °F 13.2 °F 21.7 °F 89% 29.45 in 10.0 mi SE 12.7 mph - N/A   Overcast
2:52 AM 25.5 °F 14.3 °F 21.9 °F 86% 29.43 in 10.0 mi SE 12.7 mph - N/A   Overcast
3:13 AM 26.2 °F 15.2 °F 21.9 °F 84% 29.41 in 10.0 mi SE 12.7 mph - N/A   Overcast
3:32 AM 26.6 °F 16.2 °F 22.1 °F 83% 29.38 in 10.0 mi SE 11.5 mph 17.3 mph N/A   Overcast
3:52 AM 28.0 °F 19.3 °F 22.1 °F 78% 29.37 in 10.0 mi SSE 9.2 mph 16.1 mph N/A   Mostly Cloudy
4:13 AM 30.2 °F 25.4 °F 22.6 °F 73% 29.36 in 10.0 mi SSE 4.6 mph - N/A   Mostly Cloudy
4:32 AM 31.3 °F 22.1 °F 23.0 °F 71% 29.36 in 10.0 mi SSE 11.5 mph - N/A   Mostly Cloudy
4:52 AM 31.5 °F 22.3 °F 23.4 °F 72% 29.34 in 10.0 mi SSE 11.5 mph - N/A   Overcast
5:12 AM 31.5 °F 24.2 °F 23.7 °F 73% 29.34 in 10.0 mi SSE 8.1 mph - N/A   Overcast
5:32 AM 31.6 °F 23.1 °F 24.3 °F 74% 29.33 in 10.0 mi SSE 10.4 mph - N/A   Overcast
5:52 AM 31.5 °F 24.2 °F 24.4 °F 75% 29.32 in 10.0 mi SSE 8.1 mph - N/A   Mostly Cloudy
6:12 AM 31.6 °F 24.4 °F 24.8 °F 76% 29.34 in 10.0 mi South 8.1 mph - N/A   Mostly Cloudy
6:32 AM 31.1 °F 26.4 °F 24.8 °F 77% 29.32 in 10.0 mi South 4.6 mph - N/A   Mostly Cloudy
6:52 AM 30.9 °F 26.2 °F 25.0 °F 79% 29.32 in 10.0 mi South 4.6 mph - N/A   Mostly Cloudy
7:12 AM 31.1 °F 23.7 °F 25.3 °F 79% 29.31 in 10.0 mi SSE 8.1 mph - N/A   Mostly Cloudy
7:33 AM 30.2 °F 20.8 °F 25.2 °F 82% 29.29 in 10.0 mi SE 11.5 mph - N/A   Scattered Clouds
7:52 AM 30.0 °F 20.0 °F 25.3 °F 83% 29.28 in 10.0 mi SSE 12.7 mph - N/A   Scattered Clouds
8:12 AM 30.2 °F 21.9 °F 25.5 °F 83% 29.30 in 10.0 mi South 9.2 mph - N/A   Mostly Cloudy
8:32 AM 30.2 °F 22.6 °F 25.5 °F 83% 29.32 in 10.0 mi South 8.1 mph - N/A   Overcast
8:52 AM 30.6 °F - 25.7 °F 82% 29.35 in 10.0 mi Calm Calm - N/A   Overcast
9:13 AM 29.3 °F - 25.5 °F 86% 29.35 in 10.0 mi Calm Calm - N/A   Scattered Clouds
9:32 AM 30.2 °F - 25.7 °F 83% 29.35 in 10.0 mi Calm Calm - N/A   Scattered Clouds
9:52 AM 31.5 °F - 26.4 °F 82% 29.35 in 10.0 mi Calm Calm - N/A   Mostly Cloudy
10:12 AM 32.0 °F - 26.4 °F 80% 29.35 in 10.0 mi Calm Calm - N/A   Scattered Clouds
10:33 AM 32.7 °F - 27.1 °F 80% 29.35 in 10.0 mi Calm Calm - N/A   Scattered Clouds
10:52 AM 33.3 °F 30.2 °F 27.7 °F 80% 29.37 in 10.0 mi WSW 3.5 mph - N/A   Clear
11:12 AM 35.4 °F 29.7 °F 28.4 °F 76% 29.36 in 10.0 mi WSW 6.9 mph - N/A   Mostly Cloudy
11:32 AM 35.8 °F 28.3 °F 28.8 °F 76% 29.36 in 10.0 mi West 10.4 mph - N/A   Mostly Cloudy
11:52 AM 36.0 °F 29.6 °F 29.3 °F 77% 29.35 in 10.0 mi WSW 8.1 mph - N/A   Scattered Clouds
12:12 PM 36.5 °F 31.8 °F 29.8 °F 77% 29.34 in 10.0 mi SW 5.8 mph - N/A   Clear
12:32 PM 37.6 °F 34.0 °F 30.2 °F 75% 29.33 in 10.0 mi WSW 4.6 mph - N/A   Clear
12:52 PM 38.3 °F 31.9 °F 30.9 °F 75% 29.35 in 10.0 mi WSW 9.2 mph - N/A   Clear
1:13 PM 39.6 °F 33.5 °F 30.7 °F 71% 29.35 in 10.0 mi SW 9.2 mph - N/A   Clear
1:32 PM 38.7 °F 34.3 °F 30.9 °F 74% 29.35 in 10.0 mi SW 5.8 mph - N/A   Clear
1:53 PM 39.2 °F 33.6 °F 30.7 °F 72% 29.36 in 10.0 mi WSW 8.1 mph - N/A   Clear
2:12 PM 38.1 °F 32.9 °F 30.9 °F 75% 29.37 in 10.0 mi SW 6.9 mph - N/A   Clear
2:33 PM 38.7 °F 35.2 °F 30.9 °F 74% 29.37 in 10.0 mi SW 4.6 mph - N/A   Clear
2:52 PM 39.2 °F 34.2 °F 30.7 °F 72% 29.38 in 10.0 mi SSW 6.9 mph - N/A   Clear
3:13 PM 38.7 °F 34.3 °F 30.9 °F 74% 29.38 in 10.0 mi SW 5.8 mph - N/A   Clear
3:32 PM 36.9 °F - 30.9 °F 79% 29.40 in 10.0 mi Calm Calm - N/A   Clear
3:53 PM 36.7 °F - 30.7 °F 79% 29.41 in 10.0 mi Calm Calm - N/A   Clear
4:12 PM 37.8 °F 31.8 °F 30.7 °F 76% 29.43 in 10.0 mi South 8.1 mph - N/A   Clear
4:33 PM 37.4 °F 31.4 °F 30.7 °F 77% 29.43 in 10.0 mi South 8.1 mph - N/A   Clear
4:52 PM 36.7 °F 29.9 °F 30.7 °F 79% 29.45 in 10.0 mi SSW 9.2 mph - N/A   Clear
5:13 PM 36.1 °F 29.3 °F 30.7 °F 81% 29.45 in 10.0 mi SSW 9.2 mph - N/A   Clear
5:32 PM 35.4 °F 29.0 °F 30.2 °F 81% 29.45 in 10.0 mi SW 8.1 mph - N/A   Clear
5:53 PM 34.3 °F 27.7 °F 29.8 °F 84% 29.46 in 10.0 mi WSW 8.1 mph - N/A   Clear
6:12 PM 34.9 °F 28.3 °F 29.8 °F 82% 29.46 in 10.0 mi WSW 8.1 mph - N/A   Clear
6:32 PM 34.9 °F 27.7 °F 29.8 °F 82% 29.46 in 10.0 mi WSW 9.2 mph - N/A   Clear
6:52 PM 33.8 °F 27.7 °F 29.3 °F 84% 29.47 in 10.0 mi WSW 6.9 mph - N/A   Clear
7:12 PM 32.0 °F - 28.4 °F 87% 29.47 in 10.0 mi Calm Calm - N/A   Clear
7:32 PM 32.0 °F 26.4 °F 28.4 °F 87% 29.47 in 10.0 mi WSW 5.8 mph - N/A   Clear
7:52 PM 32.0 °F 26.4 °F 28.4 °F 87% 29.47 in 10.0 mi WSW 5.8 mph - N/A   Clear
8:12 PM 32.0 °F 26.4 °F 28.2 °F 86% 29.48 in 10.0 mi WSW 5.8 mph - N/A   Clear
8:32 PM 32.0 °F 24.2 °F 28.2 °F 86% 29.48 in 10.0 mi SW 9.2 mph - N/A   Clear
8:52 PM 34.5 °F 26.2 °F 28.9 °F 80% 29.48 in 10.0 mi SW 11.5 mph - N/A   Clear
9:12 PM 34.3 °F 27.7 °F 28.6 °F 79% 29.48 in 10.0 mi SW 8.1 mph - N/A   Clear
9:32 PM 33.8 °F 27.0 °F 28.4 °F 81% 29.49 in 10.0 mi SW 8.1 mph - N/A   Clear
9:52 PM 32.2 °F 24.4 °F 27.1 °F 82% 29.50 in 10.0 mi West 9.2 mph - N/A   Clear
10:12 PM 30.9 °F 22.8 °F 27.1 °F 86% 29.51 in 10.0 mi WSW 9.2 mph - N/A   Clear
10:32 PM 30.2 °F - 26.6 °F 86% 29.50 in 10.0 mi Calm Calm - N/A   Clear
10:52 PM 29.1 °F 22.1 °F 25.7 °F 87% 29.51 in 10.0 mi West 6.9 mph - N/A   Clear
11:13 PM 29.1 °F 20.6 °F 25.7 °F 87% 29.51 in 10.0 mi West 9.2 mph - N/A   Clear
11:32 PM 28.2 °F 19.5 °F 25.2 °F 88% 29.51 in 10.0 mi West 9.2 mph - N/A   Clear
11:52 PM 27.0 °F 18.0 °F 23.9 °F 88% 29.51 in 10.0 mi West 9.2 mph - N/A   Clear